This demonstration page uses our WeatherBlox Daily Observations layout. Learn more.

Left ArrowRight Arrow

Hourly Observations for February 27, 2016

Temp ( °F °C ) Dew Point ( °F °C ) Humidity (%) Winds ( mph kmh ) Pressure ( in mb ) Visibility ( mi km ) Precip ( " mm )
12:58 am 00:58 Clear 25 -4.1 24 -4.4 98 98 E 1 2 30.09 1019 10 16 0.00 0.00
1:58 am 01:58 Clear 23 -4.8 23 -4.9 99 99 Calm 30.09 1019 10 16 0.00 0.00
2:58 am 02:58 Clear 24 -4.2 24 -4.5 98 98 ENE 2 4 30.07 1018 10 16 0.00 0.00
3:58 am 03:58 Clear 23 -4.8 23 -5 99 99 E 3 6 30.05 1018 10 16 0.00 0.00
4:58 am 04:58 Clear 23 -4.9 23 -5.1 99 99 E 2 4 30.04 1017 10 16 0.00 0.00
5:58 am 05:58 Clear 24 -4.6 23 -5.1 96 96 ESE 3 6 30.03 1017 10 16 0.00 0.00
6:58 am 06:58 Clear 25 -3.8 23 -5 91 91 ESE 5 7 30.01 1016 10 16 0.00 0.00
7:58 am 07:58 Sunny 28 -2.2 26 -3.5 91 91 E 2 4 30.00 1016 10 16 0.00 0.00
8:58 am 08:58 Sunny 37 2.5 30 -1 78 78 SE 6 9 29.98 1015 10 16 0.00 0.00
9:58 am 09:58 Sunny 46 7.8 33 0.4 60 60 SE 6 9 29.95 1014 10 16 0.00 0.00
10:58 am 10:58 Sunny 59 14.9 27 -2.7 30 30 S 8 13 29.91 1013 10 16 0.00 0.00
11:58 am 11:58 Sunny 65 18.3 28 -2.1 25 25 SSW 14 22 29.87 1012 10 16 0.00 0.00
12:58 pm 12:58 Sunny 69 20.4 28 -2.2 22 22 SSW 17 28 29.82 1010 10 16 0.00 0.00
1:58 pm 13:58 Sunny 72 22.4 27 -2.8 18 18 S 17 28 29.77 1008 10 16 0.00 0.00
2:58 pm 14:58 Sunny 73 23 28 -2.3 18 18 SSW 23 37 29.74 1007 10 16 0.00 0.00
3:58 pm 15:58 Sunny 74 23.5 28 -2 18 18 SSW 17 28 29.71 1006 10 16 0.00 0.00
4:58 pm 16:58 Sunny 74 23.2 29 -1.6 19 19 S 12 19 29.67 1005 10 16 0.00 0.00
5:58 pm 17:58 Sunny 70 20.9 31 -0.7 24 24 S 12 19 29.66 1004 10 16 0.00 0.00
6:58 pm 18:58 Clear 64 17.9 31 -0.5 29 29 S 9 15 29.65 1004 10 16 0.00 0.00
7:58 pm 19:58 Clear 62 16.7 30 -1.1 30 30 S 13 20 29.64 1004 10 16 0.00 0.00
8:58 pm 20:58 Clear 62 16.7 29 -1.7 29 29 S 12 19 29.62 1003 10 16 0.00 0.00
9:58 pm 21:58 Clear 61 16 29 -1.5 30 30 S 12 19 29.61 1003 10 16 0.00 0.00
10:58 pm 22:58 Clear 60 15.7 30 -1.3 31 31 S 14 22 29.58 1002 10 16 0.00 0.00
11:58 pm 23:58 Clear 60 15.8 32 -0.2 34 34 SSW 15 24 29.56 1001 10 16 0.00 0.00

Powered by AerisWeather